Location: Lake Crest
(37.6062°N, 88.9176°W)
Time: 23:46:00
(UTC+00:00)

Okean 1 - Pass Details

Date: 15 December 2019
Orbit: 540 x 554 km, 82.5° (Epoch: 26 January)

Event Time Altitude Azimuth Distance (km) Brightness Sun altitude
Exits shadow 10:52:54 44° 164° (SSE) 758 4.1 -25.0°
Drops below altitude 10° 10:55:40 10° 171° (S) 1,804 6.2 -24.5°
Sets 10:57:49 0° 172° (S) 2,694 7.1 -24.0°
